Temp_Advection
nan nan nan nan nan nan nan nan nan nan nan nan nan nan nan nan nan nan nan nan nan nan nan nan nan nan nan nan nan nan nan nan nan nan nan nan nan nan nan nan nan nan nan nan nan nan nan nan nan nan nan nan nan nan nan nan nan nan nan nan nan nan nan nan nan nan nan nan nan nan nan nan nan nan
nan -0 -1 -0 0 0 0 -0 -1 -1 -1 -1 0 0 0 -1 -0 -0 -0 -1 -1 -0 -0 0 1 0 -0 0 0 0 1 -0 -0 1 0 -1 -2 -3 -2 -0 0 0 0 -1 -0 -0 -1 -1 -1 -1 -1 -1 -1 -1 -1 -1 -1 -1 -1 -0 -0 -0 -1 -1 0 1 1 1 0 -0 0 0 0 nan
nan 0 -0 -0 0 -0 -0 -1 -1 -0 -0 -0 -0 0 0 -1 -1 -0 -0 -1 -1 -1 -1 -0 0 0 -1 -0 0 -0 0 -0 -1 -1 -1 -1 -2 -2 -1 -0 0 0 -0 -1 -0 -0 -1 -1 -1 -1 -1 -1 -1 -1 -1 -1 -1 -1 -1 -1 -0 -0 -0 -1 -0 0 0 0 -0 0 1 0 -0 nan
nan 0 -0 0 -0 -1 -1 -1 -0 0 0 0 -1 -1 0 0 -1 -0 -0 -0 -1 -1 -1 -0 0 -0 -1 -0 0 -0 -0 -1 -2 -1 -1 -1 -1 -1 -0 -0 1 0 -1 -1 -0 -1 -1 -1 -1 -1 -1 -1 -1 -1 -1 -1 -1 -1 -1 -0 -0 -0 -0 -0 -1 -1 -0 0 0 0 0 0 0 nan
nan -0 -0 0 -0 -1 -1 -0 0 1 0 -0 -1 -1 0 1 -0 -1 -0 -0 -0 -1 -0 0 0 -0 -0 0 0 -0 -1 -1 -1 -1 -0 -1 -1 -0 1 1 1 0 -1 -1 -0 -1 -1 -1 -0 -1 -1 -1 -1 -1 -0 -1 -1 -0 -1 -0 -0 -0 -0 -0 -0 -0 -0 -0 0 -0 -0 -0 0 nan
nan -0 -0 -0 -0 -1 -1 -0 0 0 -0 -0 -0 -1 -0 0 -0 -1 -1 -0 -0 -0 -0 -0 0 -0 -0 1 1 -1 -1 -1 -1 -0 -0 -1 -1 0 1 2 1 0 -1 -1 0 0 -0 -0 -0 -0 -0 -0 -0 -0 -0 -0 -0 -0 -0 -0 -0 -0 -0 -0 -0 -0 -0 -1 -0 0 0 0 -0 nan
nan -0 -0 -0 -0 -0 -0 0 0 -0 -0 -1 -1 -0 -0 -0 0 -1 -1 -1 -0 -0 -0 -0 -0 -0 0 1 0 -2 -2 -1 -1 -1 -0 -1 -1 0 1 1 1 0 -1 -1 0 0 -0 -0 -0 -0 -0 -0 -1 -0 -0 -0 -0 -0 -0 -0 -0 -0 -0 -0 -1 -0 -0 -0 -0 -0 0 1 1 nan
nan -0 0 0 -0 -0 -0 -0 0 -0 -0 -1 -1 -1 -0 0 0 -0 -1 -1 -0 -0 -0 -0 -0 0 0 0 -1 -2 -1 -1 -1 -0 -0 -1 -0 1 1 1 1 -1 -3 -2 0 -0 -1 -1 -0 0 -0 -0 -1 -0 -1 -0 -0 -0 -0 -0 -0 -0 -0 -0 -0 -1 -0 -0 -0 -0 0 0 0 nan
nan -0 0 0 0 0 0 -0 0 0 -0 -1 -1 -1 -0 0 0 -0 -1 -1 -0 -0 -0 -0 0 0 0 0 -1 -1 -1 0 0 0 0 -0 0 1 0 1 0 -1 -3 -1 0 -0 -2 -1 -0 -0 -0 -0 -0 -0 -0 -0 -0 -0 -0 -1 -0 -0 -0 -0 -0 -0 -0 -0 -0 0 0 0 -0 nan
nan -0 0 0 -0 -0 0 0 0 0 -0 -0 -1 -1 -0 -0 -0 -1 -1 -0 0 0 0 0 0 -0 -0 -0 -1 -1 -1 0 0 0 0 0 0 0 0 0 0 -1 -2 -1 0 0 -1 -1 -1 -1 -1 -0 -0 -0 -0 -0 -0 -0 -1 -1 -1 -1 -0 -0 -0 -0 -0 -0 -0 -0 0 0 0 nan
nan 0 0 0 0 -0 0 -0 -0 -0 -0 -0 -0 -0 -1 -1 -1 -0 -0 0 0 0 0 -0 -0 -0 -0 -0 -1 -1 -0 0 0 -0 -0 -0 0 0 -0 0 0 -0 -2 -1 0 1 -2 -1 -1 -1 -1 -1 -1 -0 -0 -0 -0 -0 -0 -1 -1 -1 -1 -1 -1 -0 -0 -0 -0 -0 0 0 0 nan
nan 0 0 0 1 0 0 -0 -0 -0 -1 -0 0 0 -1 -1 -1 -0 0 0 0 -0 -0 -0 -0 -0 -0 -0 -0 0 0 0 -0 -0 -0 -0 -0 0 -0 -0 0 -0 -2 -1 0 0 -2 -1 -1 -0 -0 -1 -2 -1 -0 -1 -1 -0 -1 -1 -1 -1 -1 -1 -1 -1 -1 -1 -0 -0 -0 0 0 nan
nan 0 0 0 1 0 0 0 0 -0 -1 -1 0 0 -1 -1 -1 0 0 0 -0 -0 -0 -0 -0 -0 -0 0 0 0 -0 -0 -0 -0 -0 -0 -0 -0 -0 -0 0 0 -1 -1 0 0 -1 -1 0 0 -1 -2 -2 -1 -1 -1 -1 -0 -1 -1 -1 -1 -1 -1 -1 -1 -1 -1 -1 -0 -0 -0 0 nan
nan 0 0 0 0 0 0 0 -0 -0 -0 -0 0 0 -0 -1 -1 -0 0 0 -0 -0 -0 -0 -0 -0 -0 0 0 -0 -0 -0 -0 -0 -0 -0 -0 -0 -0 -0 0 0 -1 -2 0 0 -1 -1 0 0 -1 -1 -0 0 -1 -1 0 0 -1 -1 -1 -1 -1 -1 -1 -1 -1 -1 -1 -1 -1 -0 -0 nan
nan 0 1 0 0 0 0 0 -0 0 0 -0 -0 0 0 -0 -1 -1 -1 -0 -0 0 0 -0 -0 -0 -0 0 0 -0 -1 -0 -0 -0 -0 -0 -0 -0 -0 -1 -0 0 -1 -2 0 0 -1 -1 0 0 -1 -0 0 1 0 0 1 0 -1 -1 -1 -1 -1 -1 -1 -1 -1 -1 -1 -1 -1 -1 -0 nan
nan 0 1 1 0 0 0 0 0 0 0 0 0 0 0 -0 -0 -0 -1 -1 -1 -0 0 0 -0 -0 -0 0 1 0 -0 -0 0 -0 -0 -0 -0 -0 -0 -1 -0 0 -0 -1 0 -0 -0 -1 0 -0 -1 -1 0 1 1 1 1 0 -1 -1 -1 -1 -1 -1 -1 -1 -1 -1 -1 -1 -1 -1 -1 nan
nan -0 0 1 0 1 0 -0 0 0 0 0 0 0 -0 -0 -0 -0 0 -0 -1 -1 0 0 -0 -0 -0 1 1 0 0 0 -0 -0 -0 -0 -0 0 0 -0 0 0 -0 -1 -0 -0 -1 -1 0 -0 -1 -0 0 1 1 1 1 0 -1 -1 -0 -0 -1 -1 -1 -1 -2 -2 -2 -2 -2 -1 -1 nan
nan -0 0 0 0 0 -0 -0 0 0 0 0 -0 -0 -0 -0 0 0 0 0 -0 -0 -0 -0 -0 -0 -0 0 1 0 0 0 -0 -0 -0 -0 0 0 0 0 0 0 -0 -0 -1 -0 -1 -1 -0 -0 -0 0 1 0 0 1 1 0 -0 -0 0 0 -0 -1 -2 -2 -2 -2 -1 -1 -1 -2 -2 nan
nan -0 -0 0 0 0 0 -0 0 0 0 0 0 0 0 0 0 0 0 0 0 -0 -0 -0 -0 -0 0 0 0 0 0 0 -1 -1 -1 -0 0 0 0 0 1 1 0 0 -1 -1 -1 -1 -0 -0 -0 1 1 0 0 1 1 0 -0 0 1 1 -0 -1 -1 -1 -1 -1 -1 -1 -1 -1 -1 nan
nan -0 -0 -0 0 0 0 -0 -0 -0 -0 0 0 0 0 0 0 0 0 0 0 0 0 -0 -0 0 0 0 0 0 0 0 -1 -1 -0 0 0 0 0 0 0 0 0 0 -1 -1 -1 -0 -0 -0 0 0 0 -0 0 0 0 0 -0 0 1 1 0 -1 -1 -1 -1 -1 -1 -1 -1 -0 -1 nan
nan -0 -1 -0 0 0 -0 -0 -0 -0 -0 -0 -0 -0 -0 -0 0 0 0 0 0 0 0 -0 -0 -0 -0 -0 0 -0 -0 0 -0 -1 0 0 0 -0 -0 -0 0 0 -0 -0 -1 -1 -1 -0 -0 -0 0 0 0 -0 -0 -0 0 0 -1 -0 1 1 0 -1 -1 -1 -1 -1 -1 -1 -1 -0 -1 nan
nan -0 -1 -1 -0 -0 -0 -0 0 -0 -0 -0 -0 -0 -0 -0 -0 0 0 -0 0 0 -0 -0 -0 -0 -0 0 0 -0 0 0 0 -0 0 -0 -1 -0 -1 -1 -0 -0 -1 -1 -1 -2 -1 -0 -0 -0 -0 0 0 0 0 -0 -0 -0 -1 -1 0 1 -1 -1 -1 -0 -0 -1 -1 -1 -1 -1 -1 nan
nan -0 -0 -0 -1 -1 -0 -0 0 -0 -0 -0 0 -0 -0 -0 -0 -0 0 -0 0 0 0 -0 -0 -0 -0 -0 -0 -0 -0 0 -0 -0 -0 -0 -1 -1 -0 -0 -0 -0 -1 -0 -0 -2 -1 -0 -0 -0 -1 -1 -0 0 0 -0 -1 -1 -2 -2 -0 -0 -2 -2 -2 -1 -0 0 0 -1 -1 -1 -1 nan
nan -0 0 0 -0 -1 -0 -0 0 -0 -0 -0 0 0 0 0 -0 -0 0 -0 -0 0 0 -0 -0 -0 -0 -0 -1 -0 -0 -0 -0 -0 -0 -0 -1 -1 -0 0 -0 -1 -0 0 -0 -2 -1 -0 -0 -0 -0 -1 -1 0 0 0 -1 -1 -2 -1 -1 -1 -2 -3 -2 -2 -2 -0 1 0 -0 -1 -2 nan
nan 0 1 0 -0 -0 -0 -0 -0 -0 -0 -0 -0 0 -0 -0 -0 -0 0 0 -0 -0 -0 -0 -0 -0 0 0 -0 -0 -0 -0 0 -0 -0 -0 -1 -1 -0 0 -0 -0 0 1 -0 -2 -1 -0 -1 -1 -0 -1 -0 -0 0 0 -0 -1 -1 -1 -0 -1 -2 -2 -1 -2 -2 -1 0 0 -0 -1 -2 nan
nan 0 0 -1 -0 0 -0 -0 -0 -0 -0 -0 -0 -0 -0 -0 -0 -0 -0 0 0 -0 -0 -0 0 0 0 0 0 0 -0 -0 -0 -0 -0 -0 -0 -0 0 0 0 0 1 1 -1 -1 -0 -0 -0 -1 -0 -0 -0 -0 -0 -0 -0 -0 0 -0 -0 -1 -1 -1 -0 -0 -1 -1 -1 -1 -0 -0 0 nan
nan 0 -1 -1 -0 0 -0 -0 -0 -0 -0 -0 -0 -0 -0 -0 -0 -0 -0 0 -0 -0 -0 -0 0 -0 0 0 0 0 0 -0 -0 -0 -0 -0 -1 -1 -0 -0 -0 0 1 0 -0 -1 0 0 0 -0 -0 -0 -0 -0 -0 -0 -0 -0 -0 -1 -0 -0 -1 -1 -0 0 0 -0 -1 -1 -0 0 1 nan
nan -1 -1 -0 0 0 -0 -0 -0 -0 -0 -0 -0 -0 -0 -0 -0 0 -0 -0 -0 -0 -0 -0 -0 0 0 0 0 0 0 0 -0 -0 -0 -1 -1 -0 -0 -1 -0 0 0 0 -0 -0 0 1 1 0 0 -0 -0 -1 -1 -0 0 -0 -1 -1 -0 -0 -1 -1 -0 1 1 1 -0 -1 -1 -0 -0 nan
nan -1 -1 0 0 0 0 0 0 -0 -0 -0 -0 -0 -0 -0 0 0 0 -0 -0 -0 -0 -0 0 0 0 -0 -0 -0 0 0 -0 -0 -0 -0 -0 -0 -0 -0 -0 -0 -0 -0 -0 -0 0 0 1 0 0 0 -0 -0 -0 -0 0 0 -0 -0 -0 -0 -1 -1 -0 1 0 0 0 -0 -0 -0 -0 nan
nan -0 0 0 0 0 0 0 0 -0 -0 -0 -0 -0 -0 0 0 0 0 -0 -0 -0 -0 0 0 0 0 -0 -0 -0 -0 -0 -0 -0 0 0 0 0 0 0 0 0 -0 -1 -0 0 0 0 0 0 0 0 -0 -0 0 0 0 0 0 0 -0 -0 -0 -1 -0 0 -0 -0 1 1 1 0 -0 nan
nan 0 0 0 0 0 0 0 0 0 0 0 0 0 0 1 0 -0 -1 -0 -0 -0 0 0 0 0 -0 -0 -0 -0 -0 0 -0 -0 0 0 0 0 0 -0 0 0 0 0 -0 -0 -0 0 0 -0 -0 0 0 0 0 0 0 0 0 0 0 -0 -0 -0 -0 0 -1 -0 1 1 1 -0 -1 nan
nan 0 0 0 0 0 0 0 0 0 0 0 0 0 1 0 -0 -1 -0 -0 0 0 0 0 0 0 -0 0 0 0 -0 0 0 -0 -0 0 0 -0 -0 -0 -0 0 0 0 0 -0 -0 -0 -0 -0 -0 0 0 0 0 0 -0 -0 0 0 0 0 -0 -0 -0 -1 -1 -0 0 0 -0 -0 -1 nan
nan 0 0 0 0 1 1 1 1 0 0 0 0 0 -0 -0 -0 -0 0 0 0 0 -0 0 0 0 -0 0 -0 -0 -0 0 0 -0 -0 0 0 -0 -0 -0 -0 0 0 0 0 0 0 -0 -0 -0 0 0 0 0 0 0 -0 -0 -0 0 0 0 0 0 -0 -1 -1 -1 0 -0 -0 -0 -0 nan
nan 1 1 1 1 1 0 0 0 0 0 0 0 -0 -0 0 0 0 0 0 0 -0 -0 0 0 -0 -0 -0 -0 -0 0 0 0 -0 -0 -0 0 -0 -0 -0 -0 0 0 -0 0 0 0 0 -0 0 0 1 1 0 0 0 0 -0 -0 -0 -0 -0 -0 0 0 0 -0 -0 0 -0 -0 -0 0 nan
nan 1 0 0 0 0 0 -0 0 -0 -0 0 -0 -0 0 0 0 -0 0 0 -0 -0 -0 0 0 0 0 0 0 0 -0 -0 0 0 0 -0 -0 -0 -0 -0 -0 -0 -0 -0 0 0 0 0 0 0 0 0 1 1 1 0 0 0 -0 -0 -0 -0 -0 -0 0 0 0 0 0 -0 -0 -0 -0 nan
nan 0 -0 -0 -0 -0 -0 -0 -0 -0 0 0 -0 -0 0 0 -0 0 0 -0 -0 -0 0 0 0 0 0 -0 -0 -0 -0 -0 0 0 -0 -0 -0 -0 -0 -0 -0 -0 -0 -0 -0 0 0 0 -0 -0 -0 -0 -0 0 1 1 0 0 0 -0 -0 -0 0 -0 -0 0 0 0 0 0 0 0 -0 nan
nan -0 -0 -0 -0 -0 -0 0 0 -0 -0 -0 -0 0 0 -0 0 0 -0 -1 -0 0 0 -0 -0 0 0 -0 -0 -0 0 0 0 0 -0 -0 -0 -0 -0 0 -0 -0 -0 -0 -0 0 0 0 -0 -0 -0 -0 -1 -0 0 0 0 0 0 0 0 0 0 -0 -0 -0 -0 0 0 0 0 0 0 nan
nan -0 -0 -0 -0 -0 0 0 0 -0 -0 -0 0 0 0 0 0 0 -0 -1 -0 0 0 0 0 0 0 0 0 0 0 0 0 -0 -0 -0 -0 -0 -0 0 -0 -0 -0 -0 -0 -0 -0 0 0 -0 -0 -0 -1 -1 -0 -0 -0 0 0 0 0 0 0 0 -0 -0 -0 -0 -0 0 0 1 1 nan
nan -0 -0 -0 -0 -0 -0 -0 -0 -0 -0 -0 0 0 0 0 0 0 -0 -0 0 0 0 0 0 -0 0 0 0 -0 0 0 0 0 0 0 0 0 0 0 -0 -0 -0 -0 -0 -0 -0 -0 0 0 -0 -0 -0 -0 -0 -0 -0 0 0 0 0 0 0 0 0 0 -0 -0 -0 -0 0 0 1 nan
nan -0 -0 -0 -0 -0 -0 -0 0 0 -0 0 0 0 0 0 0 0 0 0 0 0 0 0 0 -0 -0 0 0 0 0 -0 -0 0 0 0 0 0 -0 -0 -0 0 0 -0 -0 -1 -0 0 0 0 0 0 -0 -0 -0 0 -0 0 0 1 0 0 0 0 0 0 0 0 0 -0 -0 -0 0 nan
nan -0 -0 -0 -0 -0 -0 -0 0 0 0 0 0 0 0 0 0 0 0 0 0 0 0 0 -0 -0 -0 -0 -0 0 0 0 0 0 0 0 -0 -0 -0 -0 0 0 0 -0 -0 -1 -0 0 0 -0 -0 0 0 -0 -0 -0 -0 -0 0 0 1 0 0 0 0 0 0 0 0 0 -0 -1 -0 nan
nan -0 -0 -0 -0 -0 -0 -0 0 0 0 0 0 0 0 0 0 0 -0 -0 -0 -0 0 0 0 0 -0 -0 -0 0 0 0 0 0 0 0 0 0 -0 -0 -0 0 -0 -0 -0 -0 -0 0 0 -0 -0 -0 -0 -0 -0 -0 -0 -0 -0 -0 0 0 0 -0 0 0 0 0 0 0 0 -0 -1 nan
nan -0 -0 -0 -0 -0 -0 0 0 0 0 0 0 0 0 0 0 -0 -0 0 -0 -0 0 0 0 0 -0 -0 0 0 0 0 0 -0 -0 -0 0 0 0 -0 -0 -0 0 -0 -0 -0 -0 0 0 0 0 -0 -0 -0 -0 -0 -0 -0 -0 -0 -0 0 0 0 -0 -0 -0 0 0 0 0 0 -0 nan
nan -0 -0 -0 0 -0 0 0 0 0 0 0 0 0 0 0 0 0 0 -0 -0 -0 0 0 -0 0 0 0 0 0 0 0 0 0 -0 -0 -0 -0 -0 -0 -0 -0 -0 0 -0 -0 -0 -0 -0 0 0 0 -0 -0 -0 -0 -0 -0 -0 -0 -0 -0 0 0 0 -0 -0 0 0 0 0 0 0 nan
nan nan nan nan nan nan nan nan nan nan nan nan nan nan nan nan nan nan nan nan nan nan nan nan nan nan nan nan nan nan nan nan nan nan nan nan nan nan nan nan nan nan nan nan nan nan nan nan nan nan nan nan nan nan nan nan nan nan nan nan nan nan nan nan nan nan nan nan nan nan nan nan nan nan
Wind_Speed
14 15 16 17 17 17 18 18 18 20 20 19 19 17 14 10 6 7 11 13 12 16 20 20 20 26 28 27 28 28 27 28 27 25 26 28 28 30 32 32 30 29 28 29 29 28 27 27 26 26 25 24 23 22 20 19 18 16 13 12 13 15 21 28 32 33 32 30 30 34 38 39 38 37
13 15 17 17 17 17 17 18 19 20 20 19 19 19 17 15 11 8 9 12 13 13 17 21 22 25 28 27 27 27 26 27 28 28 29 30 29 30 33 33 31 30 30 30 30 29 28 28 27 27 26 26 25 23 21 20 18 17 15 13 12 12 14 19 27 33 33 31 30 33 36 38 38 37
14 15 16 16 16 17 17 18 19 19 20 19 18 18 17 17 15 10 8 10 14 15 14 18 22 25 27 26 26 27 26 27 28 28 29 30 29 25 27 33 32 30 31 31 30 29 29 29 28 28 27 27 26 24 22 21 19 18 17 14 13 12 12 12 18 27 30 29 28 31 34 37 39 38
14 15 15 15 16 16 17 17 18 18 19 19 19 18 16 16 16 12 10 10 12 16 16 16 20 25 25 25 25 26 25 26 27 28 28 30 30 23 20 28 32 31 32 32 30 30 30 29 29 28 28 27 27 25 24 22 21 19 18 16 14 13 12 11 11 16 23 26 28 31 33 36 38 38
14 14 14 14 14 16 16 16 16 17 18 18 19 19 16 16 16 14 11 10 11 14 16 15 18 24 24 22 24 24 24 25 26 28 28 29 31 29 23 25 30 31 33 33 31 31 31 31 30 29 28 27 27 26 25 23 22 20 19 17 15 14 12 11 10 11 15 19 24 28 32 36 38 38
13 14 14 14 14 15 15 15 16 16 18 18 18 19 18 16 17 16 12 9 9 12 15 15 16 21 23 21 22 24 23 25 25 26 28 28 30 31 28 27 29 32 35 36 33 33 34 33 32 32 30 29 28 27 26 25 23 22 20 18 16 15 13 11 10 10 11 13 16 20 25 30 37 39
12 13 14 13 13 14 14 15 15 16 17 17 18 19 18 17 18 18 16 11 8 9 13 15 15 19 23 22 22 23 22 23 24 23 26 28 28 30 30 30 30 32 37 39 36 35 36 35 35 35 33 32 32 30 29 27 26 25 23 20 18 16 14 13 11 10 10 12 14 16 18 22 29 37
12 13 13 13 13 13 14 14 14 15 15 16 17 17 17 17 18 18 18 16 11 9 11 15 17 17 19 21 23 22 19 19 19 18 22 26 26 28 30 29 30 33 37 40 38 37 39 39 38 38 36 36 35 33 32 31 29 27 26 23 21 18 16 14 12 11 10 11 14 17 18 20 23 30
12 13 13 13 12 12 13 14 14 14 15 15 15 15 14 15 17 17 18 16 12 11 11 13 16 18 18 19 21 23 20 19 18 15 17 21 23 27 30 29 29 33 35 37 38 37 39 40 40 40 40 39 37 35 33 32 31 30 28 27 24 21 18 15 13 12 11 11 13 16 18 21 25 28
12 12 13 12 13 12 12 13 13 13 14 15 15 15 14 14 15 16 16 14 12 12 11 12 14 17 19 19 19 22 21 20 20 17 15 18 19 23 29 30 29 31 32 32 36 37 36 38 40 40 41 41 39 37 35 32 32 31 30 30 27 24 21 18 15 12 12 12 13 15 17 21 26 30
12 12 13 13 13 12 12 13 13 13 14 14 14 15 14 14 14 13 11 11 11 11 12 13 14 15 17 18 18 19 19 17 20 20 17 18 18 19 26 31 29 29 29 26 30 36 34 33 37 39 39 41 41 40 38 35 33 32 31 32 31 28 25 22 18 15 12 12 13 15 17 21 25 29
13 12 12 12 12 12 12 12 13 13 13 13 13 13 14 14 13 10 9 9 10 11 11 13 14 14 16 18 18 19 20 20 22 22 19 18 19 17 21 29 30 29 29 23 24 34 35 27 30 35 36 39 42 41 40 38 36 35 34 34 34 32 30 26 22 19 15 12 13 14 16 20 24 27
13 12 11 11 11 11 12 12 12 13 13 12 12 12 13 14 13 9 8 9 9 11 12 12 14 15 17 19 20 20 23 23 22 22 20 18 19 17 17 25 30 28 29 25 20 30 36 27 27 34 36 37 40 40 41 40 38 37 37 36 35 34 32 31 27 24 20 16 13 14 15 18 23 26
12 11 11 12 11 11 11 12 12 12 12 12 12 12 12 13 13 11 9 10 10 11 12 13 14 16 18 20 21 20 21 21 21 22 21 18 19 20 18 23 29 29 29 27 19 26 35 28 24 33 36 35 38 39 40 39 38 38 38 38 37 35 33 32 32 30 27 21 17 14 14 16 20 24
12 11 10 11 11 11 11 11 12 12 11 12 12 12 12 13 13 13 12 12 12 12 13 14 13 13 16 18 20 20 19 19 18 19 19 17 18 20 20 21 27 30 30 27 18 23 33 28 22 31 36 35 36 39 38 37 37 38 39 39 38 37 35 34 34 34 33 28 22 17 15 15 18 21
12 11 10 10 10 10 10 11 11 11 11 11 11 11 12 12 13 13 13 13 13 13 13 14 14 12 13 16 18 20 19 18 17 16 17 18 16 17 18 20 26 30 31 28 19 21 30 29 21 27 34 34 35 38 38 37 37 38 40 40 39 37 36 36 36 37 37 34 29 22 17 15 16 19
12 11 10 10 9 9 10 10 9 11 11 11 11 11 11 12 12 13 13 13 14 14 13 14 15 14 14 15 16 18 18 18 18 17 17 18 16 15 16 19 25 30 30 29 22 19 28 30 21 23 30 31 33 37 39 38 38 39 40 39 38 37 36 37 38 39 40 39 34 28 22 18 16 16
12 12 11 10 9 10 10 7 6 8 10 9 9 9 10 11 10 11 12 12 13 14 14 13 14 14 14 15 15 17 17 17 19 18 18 19 15 14 13 15 20 27 30 30 24 18 25 30 23 22 27 28 30 36 40 40 39 39 40 38 37 36 36 37 38 39 40 40 37 32 27 23 19 16
12 13 12 10 9 9 9 8 8 6 7 7 7 7 7 8 8 8 9 10 11 12 12 12 13 13 13 14 15 16 16 16 18 17 16 17 14 12 11 11 16 24 29 30 28 21 23 29 25 22 23 24 28 33 38 41 42 41 41 39 36 36 36 37 37 38 39 39 38 34 29 27 24 20
12 13 12 11 9 9 9 9 10 10 8 5 4 4 5 5 5 5 7 8 9 10 10 11 11 11 12 13 14 16 16 16 18 16 14 15 13 12 12 11 14 21 27 30 29 24 23 27 27 23 20 21 27 32 35 41 43 43 43 41 38 37 37 38 37 37 38 38 37 35 31 27 24 22
12 13 13 12 10 9 10 10 10 11 11 7 3 3 4 4 2 2 4 6 7 8 8 9 9 10 11 12 13 15 16 15 17 17 16 17 15 14 15 14 13 17 24 29 29 24 23 26 27 25 19 17 24 29 33 39 43 43 44 43 40 39 39 39 39 37 37 37 36 36 33 29 24 22
12 12 12 13 12 10 11 10 10 11 11 8 3 3 4 3 1 1 3 5 5 5 7 7 8 9 10 11 12 14 14 14 16 18 18 19 17 14 15 15 13 14 21 28 28 24 23 26 27 26 21 17 21 26 29 36 42 44 45 45 43 41 40 39 40 39 38 37 37 36 35 33 29 27
12 11 11 13 14 13 13 11 10 11 10 8 4 3 3 2 2 3 3 4 2 3 5 5 7 9 9 11 12 12 12 13 15 17 17 18 18 15 14 14 14 13 18 26 28 24 23 25 26 26 22 18 21 25 26 31 39 43 45 46 45 44 42 39 38 39 40 38 37 37 36 35 34 32
12 12 11 12 13 13 13 12 11 10 11 10 7 4 3 4 4 4 3 4 4 3 4 4 7 9 9 10 10 10 11 12 13 14 15 16 18 16 14 13 13 12 16 22 27 25 22 24 27 26 21 19 21 24 24 27 34 40 42 44 46 46 44 39 33 34 38 40 39 37 36 36 37 35
12 11 11 11 12 12 12 12 12 11 11 11 9 5 6 9 9 6 3 3 4 4 4 4 5 5 5 6 6 6 7 9 10 12 13 15 16 16 15 14 12 11 14 20 26 26 21 21 26 26 22 18 19 22 23 24 29 35 38 40 44 46 45 40 32 27 29 35 39 40 38 36 37 37
11 11 11 12 12 12 12 12 12 11 10 11 10 9 10 11 9 7 5 2 1 1 1 1 1 2 2 3 4 4 5 7 9 11 11 12 15 14 14 15 14 14 16 20 24 25 21 20 23 25 22 20 20 21 22 23 26 32 35 36 40 45 45 42 37 30 26 27 35 41 40 37 38 38
11 12 14 13 12 12 12 12 12 12 11 11 10 10 10 10 9 8 6 3 2 3 2 2 2 2 2 2 4 4 4 6 7 8 9 11 14 13 13 15 16 16 17 19 21 22 21 19 21 22 20 20 20 20 20 22 24 29 33 34 35 41 45 43 39 35 29 25 29 37 42 40 38 39
12 14 15 13 12 13 13 12 12 12 12 11 11 10 10 10 9 8 6 3 4 3 2 2 3 3 3 3 4 4 4 4 6 8 10 11 12 12 12 13 15 16 17 18 19 20 20 19 20 21 18 17 19 19 19 20 21 25 30 31 31 36 41 42 40 38 32 26 25 31 40 42 40 40
15 15 14 12 13 13 13 12 12 12 12 12 11 11 10 10 8 7 5 5 5 5 4 4 4 4 4 5 4 4 4 4 7 8 9 8 9 11 11 11 14 16 18 19 18 18 19 19 20 20 17 15 18 19 18 18 19 22 26 27 28 31 36 38 38 38 35 31 27 26 33 39 40 40
16 14 13 13 13 13 13 13 12 12 12 12 12 12 11 10 7 6 7 7 6 5 5 5 4 4 5 6 5 5 4 5 6 8 7 6 7 9 9 8 9 12 15 17 18 16 17 18 18 19 17 15 18 20 18 16 17 19 22 24 24 26 31 33 34 37 36 33 30 28 29 33 36 38
15 14 14 13 13 13 13 14 13 12 12 12 12 12 10 9 9 9 10 10 8 7 7 6 6 6 6 6 5 5 4 4 6 8 8 6 7 8 9 8 7 8 10 13 16 17 18 17 17 18 18 15 18 21 19 15 16 17 19 21 21 21 25 28 30 34 35 30 29 32 33 32 33 35
15 14 13 13 13 13 13 13 12 11 12 12 12 11 10 10 11 12 12 10 9 9 8 7 6 6 6 5 5 5 4 5 7 8 7 7 7 8 8 8 9 9 9 10 12 14 17 17 16 17 18 16 18 21 19 15 16 16 17 19 20 19 21 24 26 30 33 29 27 32 35 35 33 31
15 14 13 13 13 13 12 12 11 11 11 12 12 12 12 11 10 10 9 8 7 8 8 7 6 6 5 5 6 6 5 5 7 8 8 8 7 8 8 8 9 10 10 10 10 11 14 16 16 16 18 18 18 19 18 15 16 17 16 17 18 18 20 21 21 25 29 27 26 28 32 34 35 31
14 14 13 13 12 13 12 11 11 11 12 12 11 12 13 12 11 10 10 8 8 10 10 8 7 7 7 6 6 6 6 6 7 8 9 9 8 8 8 9 9 10 10 11 11 11 13 15 15 15 16 17 17 17 16 16 17 17 16 15 16 17 19 20 19 21 23 22 23 26 27 28 32 34
15 14 13 13 13 13 13 12 12 12 12 12 12 11 11 12 12 12 11 10 10 12 11 10 9 9 8 7 7 7 8 8 7 7 8 8 8 8 8 9 10 10 11 11 11 11 13 14 13 13 13 13 14 13 13 16 19 18 16 15 15 16 18 19 18 18 19 18 19 23 24 24 27 30
15 14 14 14 13 13 13 13 13 12 11 12 12 11 11 12 12 12 12 12 12 11 10 10 10 10 9 9 10 10 10 10 8 8 8 8 8 9 9 9 10 10 11 11 11 11 12 12 12 12 12 12 12 11 11 16 20 19 16 16 16 16 17 18 17 16 17 17 17 18 20 21 24 26
15 14 14 14 13 13 13 13 13 13 12 12 11 11 11 12 11 11 12 13 13 12 12 12 11 11 11 11 11 11 11 10 10 10 10 9 9 9 10 10 10 11 11 11 11 11 12 11 11 11 12 13 13 12 12 16 19 18 17 16 17 18 18 17 17 16 16 16 16 16 15 17 20 24
17 15 14 13 12 12 12 13 13 13 13 12 12 12 12 11 10 11 12 13 13 12 13 12 12 12 12 12 12 12 11 11 11 11 10 10 10 10 10 11 11 11 11 12 12 11 11 11 10 9 10 12 13 13 15 16 16 16 17 17 18 19 18 16 16 17 15 15 16 15 13 14 18 23
18 16 14 14 14 13 12 12 13 13 13 13 12 12 12 11 11 12 13 13 13 13 13 12 12 12 13 13 13 14 13 13 13 13 12 11 11 11 12 12 12 13 13 13 12 12 11 11 9 9 10 12 12 14 17 18 17 16 16 16 17 18 17 16 17 17 15 15 17 16 13 14 17 21
19 17 15 14 14 13 12 12 12 12 13 12 12 12 11 11 11 11 11 11 12 12 12 12 13 14 15 14 15 15 15 14 14 14 13 13 14 14 15 15 16 16 16 14 13 13 12 11 11 13 15 16 17 18 20 19 17 15 15 16 18 19 17 17 18 18 17 16 17 16 13 13 14 14
20 18 17 15 13 13 12 12 12 11 11 11 11 11 12 11 11 11 12 12 12 12 12 13 13 15 15 16 16 16 16 15 15 14 14 14 15 16 18 19 18 17 15 14 14 13 12 12 17 21 21 20 20 19 18 16 15 14 14 16 19 20 19 18 17 17 17 17 17 15 13 13 12 10
18 17 16 15 14 13 12 12 12 11 11 11 10 10 11 11 11 13 14 14 14 14 14 13 13 13 14 14 14 15 15 15 15 15 15 16 16 16 17 17 16 15 14 14 15 15 14 16 19 21 19 18 17 16 15 15 16 16 16 16 16 18 21 20 17 15 15 15 15 14 13 13 11 9
15 15 14 14 13 13 13 12 12 11 11 11 10 10 10 10 11 12 12 12 12 13 12 12 12 12 12 12 12 13 14 15 15 16 17 18 18 17 17 16 16 16 17 18 18 18 18 17 17 16 16 15 15 15 16 17 17 17 17 16 15 18 21 20 18 17 16 15 14 13 13 13 13 11
14 15 14 13 12 12 12 13 13 12 11 11 11 10 11 11 11 11 11 11 11 11 11 11 11 12 12 13 13 14 14 15 15 16 17 18 18 18 18 18 19 20 20 19 18 18 17 17 16 15 16 16 16 16 17 18 18 18 19 19 20 21 20 17 16 17 18 16 15 14 13 13 13 13
15 15 14 13 13 12 12 13 14 13 12 12 11 11 11 11 12 12 12 12 12 12 12 13 13 13 14 14 14 15 16 16 16 17 17 17 16 17 17 17 18 19 19 18 18 19 18 17 17 17 17 17 17 17 17 18 19 21 21 22 23 21 18 15 15 16 17 16 15 15 15 14 13 14
Wind_Direction
89 89 88 87 86 84 82 80 80 79 78 74 71 73 75 65 49 38 41 39 27 28 37 36 31 37 41 35 35 36 27 28 36 30 23 25 27 30 28 22 19 18 18 18 16 13 12 11 9 6 3 1 359 358 356 354 350 342 328 309 292 272 253 241 233 230 227 223 221 223 227 232 232 229
91 90 88 87 86 84 82 79 77 76 76 74 70 68 71 75 67 46 43 45 38 32 34 36 37 41 42 37 36 37 32 31 36 36 31 30 30 29 26 22 19 19 22 20 16 14 14 13 11 8 6 5 3 3 0 358 356 352 344 328 311 293 274 256 244 240 234 222 214 218 225 231 235 234
93 91 88 89 88 85 81 79 76 76 74 73 72 67 64 73 74 58 51 53 44 42 39 32 36 43 41 36 36 37 33 33 36 38 37 35 34 28 21 22 22 21 25 23 18 17 16 14 14 11 9 7 6 6 4 2 360 358 355 346 329 310 294 276 255 248 242 227 216 218 223 228 234 236
94 92 90 90 91 87 84 81 78 77 75 72 73 71 63 66 75 70 60 58 45 42 42 31 32 43 43 34 35 38 34 35 37 37 38 38 38 34 21 20 23 25 27 24 20 21 19 17 16 15 13 12 10 9 7 5 2 359 358 355 346 331 313 296 275 257 248 238 230 227 225 226 231 236
98 96 94 92 91 90 88 86 83 79 76 73 72 73 70 65 72 76 66 57 47 40 41 36 34 43 46 37 37 42 38 39 40 37 38 39 39 39 32 24 26 30 31 27 24 26 24 20 19 18 17 16 16 15 13 10 7 3 359 358 354 346 334 313 291 271 258 251 246 242 236 230 230 234
102 100 98 96 93 92 90 87 85 81 76 75 73 73 73 68 69 76 75 61 47 42 42 42 37 41 46 41 40 45 42 41 41 37 38 40 38 38 36 31 31 35 35 31 28 32 31 26 25 22 19 19 19 18 18 16 14 11 5 1 358 353 348 334 310 284 263 253 253 256 253 244 235 233
106 104 101 99 96 94 92 87 82 81 77 74 74 72 72 72 70 73 79 73 52 43 43 43 41 41 44 42 43 45 42 40 40 34 35 38 37 36 36 34 35 38 38 32 28 33 35 31 30 28 24 23 22 19 19 18 16 15 12 7 3 357 351 345 333 309 276 252 245 246 252 252 244 238
110 108 104 102 100 96 93 88 81 80 79 75 75 73 70 72 73 73 76 75 61 47 42 40 41 42 42 39 42 44 35 31 33 27 28 34 34 34 36 34 35 41 39 31 26 30 33 31 31 31 29 28 26 22 20 19 17 15 13 12 9 3 356 347 339 328 303 272 253 245 240 239 243 244
115 112 108 104 103 100 95 91 86 82 82 79 78 78 73 72 74 72 70 68 60 52 45 39 39 44 45 40 41 44 37 30 31 24 19 25 27 30 35 35 35 40 41 31 25 28 30 28 27 29 30 30 28 25 23 21 19 17 14 12 10 7 3 353 341 331 317 296 272 259 249 237 233 239
121 116 114 110 107 105 101 96 91 87 85 83 83 84 83 78 74 70 64 59 56 52 47 42 38 40 43 40 36 40 38 31 33 30 17 19 21 22 29 34 34 38 42 33 25 28 32 27 25 26 27 28 28 27 26 25 23 21 18 15 11 7 5 0 350 335 320 308 291 273 262 246 233 232
125 120 115 113 110 108 108 103 98 93 87 84 86 88 88 84 76 65 55 50 50 51 47 44 40 35 36 37 31 32 34 30 33 34 23 18 19 15 21 29 31 36 43 35 21 27 35 29 23 25 25 26 27 26 26 27 26 25 23 20 17 12 6 3 356 345 326 308 297 283 271 258 244 235
126 122 116 113 113 113 113 110 106 101 93 86 87 90 90 87 79 64 52 49 47 49 49 44 41 36 33 35 33 33 36 35 34 36 28 18 19 15 16 24 28 32 43 40 16 22 35 30 20 24 25 25 26 24 24 26 26 27 27 24 22 18 13 8 2 354 342 318 298 285 275 267 259 250
128 127 125 122 119 116 113 110 107 102 98 93 92 93 92 89 84 72 60 56 51 50 52 46 41 38 36 37 38 37 38 37 34 35 33 23 22 22 18 23 27 29 41 44 17 17 33 32 18 23 26 25 24 22 23 24 24 26 27 25 23 20 18 15 10 4 355 339 316 293 277 268 264 261
135 136 135 130 122 115 110 109 107 102 98 96 93 92 93 92 91 87 76 68 61 55 55 53 45 39 38 41 42 41 40 37 34 34 34 27 24 25 22 23 26 28 39 46 21 12 31 33 18 23 28 25 23 22 22 22 23 25 26 24 21 20 19 18 16 12 5 355 340 316 290 272 264 263
142 142 138 130 120 112 107 104 103 102 99 96 91 87 88 90 92 93 90 82 72 63 59 60 55 42 36 40 44 45 42 36 31 30 31 26 20 22 20 18 22 25 35 44 26 9 28 33 18 20 27 26 24 23 23 21 22 26 27 23 20 18 17 19 18 14 10 3 353 338 313 288 270 263
147 148 143 129 118 113 109 101 97 99 97 93 92 91 89 89 90 91 91 89 83 74 66 63 62 52 40 38 43 47 47 43 36 29 30 28 18 17 18 16 20 23 30 42 35 10 24 33 18 15 24 25 22 23 24 23 22 26 27 23 19 16 15 17 18 15 13 9 2 352 336 315 289 272
156 157 152 140 135 128 115 101 92 94 96 95 91 89 88 87 87 87 86 87 87 83 76 67 63 61 54 47 46 47 48 50 46 34 31 31 16 8 15 16 20 23 27 39 40 12 19 30 19 10 20 21 19 21 25 25 24 27 28 24 19 17 15 16 18 16 14 13 8 1 350 338 320 295
165 162 159 157 154 137 123 120 108 87 85 90 87 80 82 82 82 86 85 84 84 82 79 72 65 62 59 55 52 50 47 51 52 41 34 33 14 358 8 9 13 20 23 34 41 19 14 26 20 9 15 17 15 20 24 25 25 27 30 26 20 18 18 19 18 16 15 15 12 7 360 352 342 325
171 167 164 168 164 146 145 157 152 118 88 86 88 81 81 79 78 85 88 85 84 81 79 74 67 62 61 58 57 55 49 49 53 44 32 31 15 357 9 8 8 18 19 28 38 27 13 21 19 8 10 12 14 18 21 24 26 27 29 28 23 21 22 23 21 17 16 17 16 13 6 359 354 346
178 172 165 172 174 167 171 168 150 142 132 111 101 100 96 85 74 82 92 89 83 80 78 75 69 63 60 57 56 56 51 47 52 48 34 32 23 7 16 15 8 16 18 23 35 31 14 17 18 11 6 7 12 17 19 22 26 27 28 27 24 24 27 28 25 21 18 17 18 19 14 5 1 356
188 180 168 174 181 180 187 178 151 141 134 128 139 131 112 105 90 88 101 95 86 80 77 71 67 62 55 52 52 52 48 45 50 53 46 42 34 16 16 16 7 12 16 21 32 32 16 13 17 15 10 5 8 13 16 20 24 27 27 25 23 24 28 31 29 26 22 18 18 21 22 18 12 8
198 193 178 175 176 187 199 186 161 148 136 134 170 162 126 128 154 170 116 91 77 74 74 65 59 57 50 48 50 49 45 44 48 52 50 48 44 26 14 14 8 8 12 17 28 33 19 13 15 15 11 7 7 9 12 17 22 25 26 23 21 22 26 30 30 29 27 24 19 20 24 26 26 24
202 204 193 183 177 186 201 190 170 162 146 142 179 181 151 171 210 195 147 113 82 55 62 56 48 45 39 39 43 42 41 43 45 48 49 49 48 39 22 13 10 9 8 12 24 32 21 12 15 15 7 0 3 6 7 13 19 24 25 23 19 20 23 25 27 28 29 28 25 22 22 26 30 31
203 206 201 195 186 186 195 190 179 172 157 155 173 180 174 205 214 201 166 149 151 120 75 49 36 27 18 20 24 22 25 30 36 43 45 46 48 45 33 22 17 12 5 10 24 33 23 12 17 20 11 359 357 0 3 9 14 20 23 22 19 20 20 19 20 24 26 27 28 28 26 26 28 30
203 204 202 204 197 189 193 193 186 182 171 164 167 184 208 212 204 188 172 155 133 98 53 28 21 4 348 354 358 357 2 8 23 37 39 39 43 43 38 33 28 16 7 12 25 31 24 12 16 19 14 3 357 356 360 6 11 16 21 21 19 20 20 18 15 15 19 23 26 29 30 31 30 29
194 195 202 210 205 194 197 199 192 188 185 176 178 197 209 209 198 179 171 176 146 51 338 323 322 308 311 328 327 333 342 345 8 27 29 30 36 37 35 34 31 22 16 17 25 28 23 13 14 16 11 2 357 357 359 3 6 12 18 21 19 21 22 20 17 15 13 15 21 25 28 30 33 33
189 197 207 212 207 200 200 203 199 196 193 190 194 202 201 200 196 181 171 189 217 219 227 221 238 271 283 299 307 318 323 327 354 18 20 23 27 24 23 27 26 20 16 17 22 25 22 15 14 17 11 360 357 357 358 1 2 6 14 19 18 20 23 23 21 19 13 8 15 22 24 25 29 33
193 206 213 211 206 204 203 204 204 202 200 199 201 202 199 197 192 178 172 209 225 214 226 231 234 253 257 258 278 289 297 325 360 8 8 10 9 5 3 5 8 9 11 16 19 20 20 18 17 19 14 1 359 358 356 358 359 360 8 14 15 18 23 24 23 22 16 8 9 18 23 24 25 28
201 207 211 207 206 208 205 204 207 206 204 202 201 203 201 194 186 182 196 225 228 218 225 233 231 243 255 259 267 280 308 355 356 346 350 353 344 344 344 338 341 350 357 7 14 13 13 14 16 20 18 5 2 2 357 356 356 356 2 7 9 14 20 22 22 23 22 16 10 14 22 25 27 27
202 203 205 205 207 207 204 203 206 207 206 203 202 204 200 188 188 209 220 221 223 222 225 233 235 237 249 259 271 295 333 357 330 320 343 354 329 329 337 330 326 329 334 347 1 6 7 9 12 17 19 9 5 8 4 355 352 354 359 3 4 7 14 18 20 23 24 21 13 12 18 22 25 28
199 199 202 202 203 205 204 204 206 208 207 204 203 204 200 191 198 214 215 211 212 214 217 228 237 241 252 262 275 300 320 317 300 311 340 350 324 324 333 326 320 320 320 330 342 351 359 5 7 12 14 8 4 9 9 358 351 352 357 2 4 2 6 12 17 22 25 22 15 16 18 18 19 23
198 197 199 201 204 204 203 203 205 208 208 205 203 201 201 207 215 216 213 212 215 216 218 225 237 247 261 271 276 285 288 281 289 306 325 331 326 330 330 319 314 322 325 324 327 335 345 353 359 4 6 2 359 4 6 360 355 354 352 357 2 0 0 5 10 16 22 22 16 18 21 19 18 19
197 197 198 201 203 204 202 199 201 206 207 207 207 205 204 210 219 221 218 218 227 231 228 228 238 249 256 262 267 273 276 277 284 295 308 321 329 329 325 317 313 318 323 325 325 324 330 340 347 348 350 350 349 353 358 356 354 356 352 352 357 357 358 1 2 7 15 17 13 16 21 22 21 22
197 201 203 203 203 204 205 204 203 205 207 206 209 214 214 211 212 217 216 216 227 236 234 229 235 245 248 253 261 267 270 272 277 288 301 315 323 319 315 312 311 315 317 319 322 321 324 336 343 336 335 336 331 333 343 348 349 353 353 351 352 352 354 358 358 359 5 9 9 12 16 19 22 24
199 204 206 208 208 207 210 213 211 211 211 209 208 214 219 219 218 219 218 217 228 240 242 240 242 246 250 254 257 258 264 270 276 285 292 298 301 300 301 302 304 309 314 314 316 320 323 332 339 335 334 335 324 318 327 335 340 349 353 350 348 348 349 354 355 353 357 0 3 8 12 14 15 20
205 210 212 215 215 214 216 219 218 216 217 218 215 213 218 224 226 227 226 226 230 238 244 245 248 251 252 254 255 259 267 274 278 280 281 284 289 291 293 297 299 302 308 310 311 315 320 325 330 332 334 336 331 324 324 327 334 344 350 347 345 345 347 350 350 349 352 356 355 359 5 9 9 12
210 216 220 222 224 223 223 224 224 223 221 222 222 220 222 226 228 231 235 236 235 237 242 244 248 252 254 259 264 268 272 277 278 280 283 285 288 288 288 291 296 300 303 305 306 310 314 316 321 326 328 329 329 326 324 326 331 337 342 343 345 347 347 346 344 344 347 350 350 350 351 356 0 4
216 220 224 226 227 228 228 228 228 229 227 225 225 224 225 226 227 230 238 242 242 244 249 251 254 257 257 261 266 267 269 273 273 275 281 282 281 285 287 288 292 296 297 299 303 307 306 305 308 316 322 324 323 320 320 323 324 326 331 339 345 347 346 342 339 341 342 342 344 346 341 338 346 355
220 223 226 227 229 230 233 233 231 230 230 230 229 229 229 229 230 234 241 247 247 248 251 253 256 259 260 261 265 265 267 270 270 271 275 276 275 278 281 283 287 291 293 296 299 299 301 300 295 299 309 313 311 311 313 317 319 322 326 332 337 340 342 341 339 339 337 334 337 342 340 334 338 348
222 224 227 231 235 235 235 237 236 235 234 233 232 233 231 231 234 237 242 248 251 252 254 255 256 260 263 263 266 268 270 272 275 277 278 277 277 277 277 279 284 288 291 293 292 293 299 294 280 284 298 302 303 307 312 314 320 328 328 322 321 327 334 338 338 337 335 334 335 336 338 338 337 343
229 229 230 232 237 239 238 239 239 238 237 236 234 235 235 234 235 237 238 242 246 248 252 256 259 264 268 269 270 273 275 275 275 276 276 277 278 280 282 285 288 289 287 286 285 289 293 285 280 287 297 302 304 308 311 308 310 316 316 312 312 317 323 328 330 328 329 333 334 330 329 333 334 334
229 231 233 234 237 240 241 243 243 241 241 240 239 242 243 241 243 247 248 251 255 258 260 263 265 269 274 276 277 279 280 279 279 278 277 278 278 280 282 285 286 284 280 279 282 285 286 285 287 293 299 301 301 300 296 294 298 303 307 311 310 309 314 320 325 326 325 327 328 326 324 326 329 329
225 230 233 235 238 242 244 244 245 245 246 248 248 248 249 248 251 257 260 263 268 272 273 271 271 271 270 272 273 273 273 276 278 280 282 283 283 283 283 281 279 279 280 281 284 286 286 287 288 289 288 288 289 287 285 287 292 297 301 303 302 303 309 315 320 323 325 325 323 322 323 322 321 320
227 234 237 236 238 244 247 247 246 247 250 253 254 253 253 254 256 259 262 262 263 266 267 267 267 267 267 268 271 273 273 274 276 278 282 284 284 286 288 287 287 289 290 289 287 286 286 286 285 283 281 280 281 283 282 282 286 291 294 295 298 303 309 311 310 312 317 319 318 318 321 322 320 319
235 242 248 249 247 246 247 247 247 247 248 251 254 256 258 259 260 260 261 262 263 264 266 266 266 266 268 270 272 273 275 276 278 280 282 283 283 284 286 287 288 289 290 288 287 287 286 284 281 280 279 279 280 281 281 280 284 290 293 296 301 304 303 301 299 301 304 305 304 305 312 319 321 321
Height
1553 1553 1553 1552 1552 1551 1550 1550 1549 1549 1548 1547 1547 1546 1546 1546 1546 1547 1545 1544 1543 1541 1539 1537 1536 1532 1529 1528 1526 1523 1522 1519 1515 1514 1512 1509 1507 1503 1501 1499 1497 1494 1491 1488 1485 1483 1480 1477 1475 1472 1469 1467 1465 1462 1460 1458 1456 1455 1453 1453 1452 1452 1453 1454 1456 1457 1459 1461 1463 1465 1468 1470 1471 1473
1554 1554 1553 1553 1552 1552 1551 1551 1550 1549 1548 1548 1547 1547 1546 1546 1546 1547 1546 1545 1544 1542 1540 1538 1537 1533 1530 1529 1527 1525 1524 1521 1517 1516 1514 1511 1508 1504 1502 1501 1498 1495 1492 1489 1486 1484 1481 1478 1475 1473 1470 1468 1465 1463 1461 1459 1457 1455 1453 1452 1451 1451 1451 1451 1453 1454 1454 1455 1458 1461 1464 1466 1468 1470
1554 1554 1554 1553 1553 1552 1552 1551 1551 1550 1549 1549 1548 1548 1547 1546 1546 1547 1547 1546 1545 1543 1542 1540 1538 1534 1531 1531 1529 1526 1525 1522 1519 1517 1515 1513 1509 1506 1505 1503 1500 1497 1494 1491 1488 1485 1482 1479 1476 1474 1471 1469 1466 1464 1462 1459 1457 1456 1454 1452 1451 1450 1450 1450 1451 1452 1452 1453 1455 1458 1460 1463 1464 1466
1555 1554 1554 1554 1553 1553 1553 1552 1552 1551 1550 1549 1549 1548 1548 1547 1546 1547 1548 1547 1546 1544 1542 1541 1539 1535 1533 1532 1530 1528 1526 1524 1521 1519 1517 1514 1512 1510 1508 1505 1502 1499 1495 1492 1490 1486 1484 1481 1478 1475 1472 1470 1467 1465 1462 1460 1458 1456 1454 1453 1451 1450 1449 1449 1449 1450 1451 1452 1453 1455 1457 1459 1461 1463
1555 1555 1555 1555 1554 1553 1553 1553 1553 1552 1551 1550 1550 1549 1549 1549 1548 1547 1548 1548 1548 1546 1543 1542 1540 1537 1535 1534 1532 1529 1528 1525 1522 1520 1518 1516 1513 1511 1510 1508 1504 1500 1497 1494 1491 1488 1485 1483 1480 1477 1474 1471 1468 1466 1463 1461 1458 1456 1454 1453 1451 1450 1449 1448 1448 1448 1449 1450 1451 1453 1454 1456 1457 1460
1555 1555 1555 1555 1555 1554 1554 1554 1553 1553 1552 1551 1551 1550 1550 1550 1549 1548 1548 1549 1549 1547 1545 1543 1542 1539 1536 1535 1534 1531 1529 1526 1524 1522 1520 1517 1515 1513 1511 1509 1506 1502 1498 1496 1493 1490 1487 1485 1482 1478 1476 1472 1469 1467 1464 1462 1459 1457 1455 1453 1451 1450 1448 1447 1447 1447 1447 1447 1448 1450 1451 1453 1454 1456
1556 1556 1555 1555 1555 1555 1555 1554 1554 1553 1553 1552 1552 1551 1551 1551 1550 1549 1548 1549 1549 1548 1546 1544 1543 1540 1538 1537 1535 1532 1530 1528 1526 1524 1522 1519 1517 1515 1512 1510 1507 1503 1499 1497 1495 1492 1489 1486 1483 1480 1478 1474 1471 1468 1465 1463 1460 1457 1455 1453 1451 1450 1448 1447 1446 1445 1445 1445 1446 1447 1448 1449 1451 1453
1556 1556 1556 1556 1556 1556 1555 1555 1555 1554 1554 1553 1553 1552 1552 1552 1551 1550 1549 1549 1549 1549 1547 1545 1543 1541 1540 1538 1536 1533 1531 1530 1527 1526 1524 1521 1519 1516 1514 1512 1509 1505 1500 1498 1497 1493 1489 1488 1485 1482 1479 1476 1472 1470 1466 1464 1461 1458 1456 1453 1452 1450 1448 1447 1446 1445 1444 1444 1444 1444 1445 1446 1448 1449
1556 1556 1556 1556 1556 1556 1556 1555 1555 1555 1554 1554 1553 1553 1553 1553 1552 1551 1550 1550 1549 1549 1548 1547 1545 1543 1541 1540 1538 1534 1532 1531 1529 1528 1526 1523 1520 1518 1515 1513 1510 1506 1502 1500 1499 1495 1491 1489 1486 1483 1481 1477 1474 1472 1468 1465 1462 1459 1456 1454 1452 1450 1448 1447 1446 1445 1444 1443 1442 1442 1442 1443 1444 1445
1556 1556 1556 1556 1556 1556 1556 1556 1556 1555 1555 1554 1554 1554 1554 1554 1553 1552 1552 1551 1550 1550 1549 1548 1546 1544 1542 1541 1539 1536 1533 1532 1530 1529 1528 1525 1523 1520 1517 1514 1511 1508 1504 1502 1501 1498 1494 1491 1488 1485 1482 1479 1476 1473 1470 1467 1464 1461 1458 1455 1452 1450 1448 1447 1446 1444 1443 1442 1441 1441 1440 1441 1442 1442
1556 1556 1556 1556 1556 1556 1556 1556 1556 1556 1555 1555 1555 1554 1554 1554 1554 1553 1553 1553 1552 1551 1550 1548 1547 1546 1544 1542 1540 1538 1535 1534 1532 1529 1528 1527 1524 1522 1519 1515 1513 1510 1506 1504 1503 1501 1496 1493 1491 1487 1484 1481 1477 1475 1472 1468 1466 1463 1460 1457 1454 1451 1448 1447 1445 1444 1443 1442 1441 1440 1439 1439 1439 1440
1556 1556 1557 1556 1556 1556 1556 1556 1556 1555 1555 1556 1556 1555 1555 1554 1554 1554 1554 1554 1553 1552 1550 1549 1548 1547 1545 1543 1541 1539 1536 1535 1533 1531 1529 1528 1526 1524 1522 1518 1514 1512 1507 1505 1505 1503 1497 1495 1494 1491 1487 1483 1479 1476 1473 1470 1467 1464 1461 1458 1455 1452 1449 1447 1445 1443 1442 1441 1440 1439 1438 1436 1436 1437
1556 1556 1557 1556 1556 1556 1556 1556 1556 1555 1555 1555 1556 1555 1555 1554 1554 1555 1555 1555 1554 1553 1551 1550 1549 1548 1546 1544 1542 1540 1537 1536 1535 1533 1531 1530 1528 1526 1524 1520 1517 1514 1509 1506 1507 1505 1499 1496 1496 1493 1489 1485 1482 1478 1475 1471 1469 1465 1462 1459 1457 1454 1451 1448 1445 1443 1441 1440 1438 1437 1436 1435 1434 1434
1556 1556 1556 1556 1556 1556 1556 1556 1556 1556 1556 1555 1555 1555 1555 1554 1554 1555 1555 1555 1554 1553 1552 1551 1550 1549 1547 1545 1543 1541 1539 1538 1537 1535 1533 1531 1530 1527 1525 1522 1519 1516 1511 1507 1508 1508 1502 1498 1498 1495 1491 1488 1484 1481 1477 1474 1471 1467 1464 1461 1458 1455 1452 1449 1446 1443 1440 1438 1437 1435 1434 1433 1433 1432
1556 1556 1556 1556 1556 1556 1556 1556 1556 1556 1556 1556 1556 1555 1555 1555 1554 1554 1554 1554 1554 1554 1552 1551 1550 1550 1548 1546 1545 1543 1541 1539 1538 1537 1535 1533 1531 1529 1527 1524 1521 1518 1513 1509 1509 1510 1504 1500 1500 1497 1493 1490 1487 1484 1481 1477 1474 1470 1465 1462 1459 1456 1453 1450 1447 1444 1440 1437 1435 1433 1431 1430 1430 1429
1555 1556 1556 1555 1556 1556 1556 1556 1556 1556 1556 1556 1556 1556 1555 1555 1555 1554 1554 1554 1554 1553 1553 1552 1551 1550 1549 1548 1546 1544 1542 1540 1539 1538 1537 1534 1533 1531 1529 1526 1523 1520 1516 1511 1510 1511 1507 1502 1501 1500 1495 1492 1489 1487 1484 1480 1476 1471 1467 1464 1461 1457 1454 1451 1447 1444 1441 1437 1433 1431 1429 1427 1426 1426
1555 1555 1556 1556 1556 1556 1555 1556 1556 1556 1556 1556 1556 1556 1556 1556 1555 1555 1555 1554 1553 1553 1553 1552 1551 1550 1549 1548 1547 1545 1543 1542 1540 1539 1538 1535 1534 1533 1531 1528 1525 1522 1519 1514 1511 1512 1509 1504 1503 1502 1498 1494 1492 1489 1486 1482 1479 1474 1469 1466 1463 1460 1456 1451 1447 1444 1441 1437 1433 1430 1427 1425 1423 1422
1555 1555 1556 1556 1556 1555 1556 1557 1557 1556 1556 1557 1557 1557 1557 1557 1556 1556 1555 1555 1554 1553 1553 1553 1552 1551 1550 1548 1547 1546 1544 1543 1541 1539 1539 1536 1535 1535 1532 1530 1527 1524 1521 1517 1513 1513 1511 1506 1504 1503 1499 1497 1495 1491 1488 1485 1481 1476 1471 1468 1465 1462 1457 1453 1448 1445 1441 1438 1434 1430 1426 1424 1422 1420
1554 1555 1555 1556 1556 1555 1556 1557 1557 1557 1557 1558 1558 1558 1558 1557 1557 1556 1556 1555 1555 1554 1554 1553 1552 1551 1550 1549 1548 1546 1545 1543 1541 1540 1540 1538 1536 1536 1535 1532 1530 1526 1523 1519 1515 1514 1512 1508 1506 1504 1501 1499 1497 1494 1490 1486 1482 1478 1473 1470 1468 1464 1459 1454 1450 1447 1443 1439 1435 1431 1427 1424 1421 1419
1554 1554 1554 1555 1556 1556 1556 1557 1556 1556 1557 1558 1559 1559 1558 1558 1558 1557 1556 1556 1555 1554 1554 1553 1553 1552 1550 1549 1548 1546 1545 1544 1542 1541 1541 1539 1538 1538 1536 1534 1532 1528 1524 1521 1517 1514 1513 1510 1507 1505 1503 1501 1499 1495 1492 1488 1484 1480 1475 1472 1470 1466 1461 1456 1452 1449 1445 1441 1437 1433 1429 1425 1422 1419
1553 1553 1553 1554 1555 1556 1556 1556 1555 1555 1556 1558 1559 1559 1559 1559 1558 1558 1557 1556 1555 1555 1554 1554 1553 1552 1551 1549 1548 1546 1545 1545 1543 1541 1541 1539 1537 1538 1536 1534 1533 1530 1526 1523 1519 1516 1515 1512 1509 1506 1504 1503 1501 1497 1493 1490 1486 1482 1478 1474 1471 1468 1463 1458 1455 1451 1447 1443 1439 1436 1431 1427 1423 1420
1552 1552 1552 1553 1554 1555 1555 1555 1555 1555 1555 1557 1559 1559 1559 1559 1559 1558 1557 1556 1556 1555 1555 1554 1553 1552 1551 1550 1548 1547 1546 1545 1543 1541 1540 1539 1537 1537 1536 1535 1534 1532 1528 1524 1520 1517 1516 1514 1511 1507 1505 1505 1502 1498 1495 1492 1487 1483 1479 1476 1473 1469 1464 1460 1456 1453 1449 1445 1441 1437 1434 1430 1425 1421
1551 1551 1551 1551 1552 1553 1554 1554 1554 1554 1554 1556 1558 1558 1559 1560 1559 1558 1557 1557 1556 1556 1555 1554 1553 1553 1552 1550 1549 1548 1547 1545 1543 1542 1541 1539 1538 1537 1536 1535 1534 1533 1530 1526 1522 1519 1517 1515 1512 1509 1506 1505 1503 1500 1497 1494 1489 1485 1481 1478 1474 1470 1465 1462 1458 1455 1451 1448 1444 1439 1435 1431 1427 1424
1550 1550 1550 1550 1550 1551 1552 1553 1553 1553 1554 1555 1557 1558 1559 1559 1558 1558 1557 1556 1556 1556 1555 1554 1554 1553 1553 1552 1550 1549 1548 1546 1544 1543 1541 1540 1538 1537 1536 1535 1535 1534 1531 1528 1523 1520 1518 1517 1514 1511 1509 1507 1504 1501 1499 1495 1492 1487 1483 1480 1476 1472 1467 1463 1460 1457 1453 1450 1447 1442 1437 1433 1429 1425
1549 1549 1549 1549 1549 1550 1551 1552 1552 1553 1553 1553 1555 1556 1557 1557 1556 1556 1557 1556 1555 1555 1555 1555 1555 1555 1555 1554 1553 1551 1549 1547 1545 1544 1542 1540 1539 1537 1536 1535 1534 1534 1532 1529 1524 1521 1520 1518 1515 1512 1510 1509 1507 1504 1500 1497 1494 1490 1486 1482 1478 1474 1469 1465 1462 1459 1456 1453 1449 1445 1441 1436 1432 1428
1548 1549 1548 1548 1548 1549 1550 1550 1551 1551 1552 1552 1553 1554 1554 1554 1555 1555 1556 1556 1556 1556 1556 1556 1556 1556 1556 1555 1554 1552 1551 1548 1546 1544 1543 1541 1539 1538 1536 1535 1534 1533 1531 1528 1525 1523 1521 1520 1517 1514 1511 1510 1508 1505 1502 1499 1495 1492 1488 1485 1481 1477 1472 1468 1465 1462 1459 1456 1451 1448 1444 1441 1436 1432
1547 1547 1547 1546 1547 1548 1548 1549 1550 1550 1550 1551 1551 1552 1552 1553 1554 1554 1555 1555 1556 1556 1556 1555 1555 1555 1555 1555 1554 1552 1551 1549 1546 1544 1543 1541 1539 1538 1537 1535 1533 1532 1530 1528 1526 1524 1522 1520 1518 1515 1513 1511 1509 1507 1504 1500 1497 1494 1490 1487 1484 1480 1476 1472 1468 1465 1463 1460 1455 1450 1447 1443 1439 1436
1545 1545 1544 1545 1546 1546 1547 1548 1548 1548 1549 1549 1550 1551 1551 1552 1552 1553 1554 1555 1555 1555 1555 1555 1554 1554 1553 1553 1552 1551 1549 1548 1546 1544 1543 1541 1540 1538 1537 1535 1533 1532 1531 1528 1526 1524 1523 1521 1519 1516 1514 1513 1511 1508 1505 1502 1499 1496 1493 1489 1486 1483 1478 1475 1471 1468 1466 1463 1459 1453 1449 1445 1441 1438
1542 1543 1543 1544 1545 1545 1546 1546 1547 1547 1547 1548 1549 1549 1550 1550 1551 1552 1553 1554 1554 1554 1554 1554 1553 1553 1552 1551 1550 1549 1548 1546 1545 1544 1543 1541 1540 1539 1537 1535 1533 1531 1530 1528 1527 1525 1523 1521 1519 1517 1515 1514 1512 1509 1506 1504 1501 1499 1495 1491 1488 1485 1481 1478 1475 1471 1468 1466 1462 1457 1453 1449 1445 1441
1540 1541 1542 1543 1543 1544 1544 1545 1545 1545 1546 1547 1547 1548 1548 1549 1550 1552 1553 1553 1553 1553 1553 1552 1552 1552 1551 1550 1548 1548 1546 1546 1546 1544 1543 1542 1541 1540 1538 1537 1535 1533 1530 1528 1527 1525 1523 1521 1519 1517 1515 1514 1513 1510 1507 1505 1503 1501 1498 1494 1491 1488 1484 1481 1478 1475 1471 1468 1466 1462 1458 1453 1450 1445
1539 1540 1541 1541 1542 1542 1543 1543 1544 1544 1544 1545 1546 1547 1547 1548 1549 1550 1550 1550 1550 1550 1550 1551 1550 1550 1549 1548 1548 1547 1546 1546 1545 1544 1542 1541 1541 1540 1538 1537 1537 1535 1532 1529 1527 1525 1523 1521 1519 1517 1515 1514 1513 1510 1508 1507 1505 1502 1499 1496 1493 1490 1487 1484 1481 1478 1474 1471 1469 1466 1461 1457 1453 1449
1538 1539 1540 1540 1541 1541 1542 1542 1543 1543 1544 1544 1545 1546 1547 1547 1548 1547 1547 1548 1548 1548 1548 1548 1549 1548 1548 1548 1547 1547 1546 1546 1545 1543 1541 1540 1540 1539 1538 1537 1537 1535 1533 1531 1528 1525 1523 1521 1519 1517 1516 1514 1512 1510 1508 1508 1506 1503 1501 1498 1495 1493 1490 1486 1483 1480 1477 1474 1472 1469 1465 1461 1457 1453
1537 1538 1539 1539 1540 1540 1541 1542 1543 1543 1543 1543 1544 1544 1545 1546 1546 1546 1546 1547 1547 1547 1546 1546 1547 1547 1547 1547 1547 1546 1545 1545 1543 1542 1540 1539 1538 1538 1537 1537 1536 1534 1533 1531 1529 1527 1524 1522 1519 1517 1515 1513 1512 1510 1508 1508 1506 1504 1502 1499 1497 1494 1492 1488 1485 1482 1479 1476 1474 1472 1468 1465 1461 1457
1536 1537 1538 1538 1539 1540 1541 1541 1542 1542 1542 1543 1543 1543 1543 1544 1545 1545 1545 1546 1546 1545 1544 1545 1545 1545 1545 1545 1545 1545 1544 1543 1542 1540 1539 1538 1537 1537 1536 1536 1535 1534 1532 1530 1529 1527 1524 1522 1519 1517 1515 1513 1511 1509 1508 1507 1506 1504 1502 1500 1498 1495 1493 1490 1487 1484 1481 1479 1477 1474 1471 1468 1465 1461
1535 1536 1537 1538 1538 1539 1540 1540 1541 1541 1541 1541 1542 1542 1542 1542 1543 1543 1543 1544 1544 1543 1543 1543 1543 1543 1543 1543 1543 1542 1541 1540 1540 1539 1538 1537 1536 1536 1535 1534 1533 1532 1530 1529 1528 1526 1524 1522 1520 1519 1517 1514 1512 1509 1507 1507 1506 1504 1502 1500 1498 1496 1493 1491 1489 1486 1484 1481 1479 1476 1473 1471 1468 1465
1534 1535 1536 1536 1537 1537 1538 1539 1539 1540 1540 1540 1540 1541 1541 1541 1541 1541 1541 1541 1542 1542 1542 1541 1541 1541 1541 1541 1540 1540 1539 1538 1538 1537 1536 1536 1535 1534 1533 1532 1531 1530 1529 1528 1527 1525 1523 1522 1520 1519 1517 1515 1514 1511 1509 1507 1505 1503 1502 1500 1498 1496 1494 1491 1489 1488 1485 1483 1481 1478 1475 1473 1470 1468
1532 1534 1534 1535 1536 1536 1537 1537 1538 1538 1538 1539 1539 1539 1539 1539 1540 1540 1540 1539 1539 1540 1540 1540 1539 1539 1539 1539 1538 1538 1537 1536 1536 1535 1534 1534 1534 1533 1532 1531 1529 1528 1527 1526 1525 1524 1522 1521 1520 1519 1517 1515 1514 1512 1510 1507 1505 1503 1501 1499 1497 1495 1493 1492 1490 1488 1486 1484 1482 1479 1477 1475 1473 1470
1530 1532 1533 1534 1535 1536 1536 1536 1536 1536 1537 1537 1537 1537 1538 1538 1538 1538 1538 1537 1537 1538 1538 1538 1537 1537 1537 1537 1537 1536 1536 1535 1535 1534 1533 1533 1532 1531 1530 1529 1528 1527 1526 1525 1524 1523 1521 1520 1519 1518 1517 1515 1513 1511 1509 1507 1505 1503 1501 1499 1497 1495 1493 1492 1490 1488 1487 1485 1483 1480 1478 1476 1474 1471
1528 1530 1531 1532 1533 1534 1534 1534 1535 1535 1535 1536 1536 1536 1536 1536 1536 1536 1536 1536 1536 1536 1536 1536 1536 1535 1535 1535 1535 1534 1534 1533 1533 1532 1531 1531 1530 1529 1528 1527 1526 1525 1524 1523 1522 1521 1520 1519 1518 1516 1515 1514 1512 1511 1508 1506 1504 1502 1500 1498 1496 1495 1493 1492 1490 1488 1487 1485 1483 1481 1479 1477 1474 1471
1526 1528 1529 1530 1531 1532 1533 1533 1534 1534 1534 1534 1534 1534 1534 1534 1534 1535 1534 1534 1534 1534 1534 1534 1534 1533 1533 1533 1533 1532 1532 1531 1531 1530 1529 1528 1528 1527 1526 1525 1524 1523 1521 1520 1520 1519 1519 1518 1516 1514 1513 1511 1510 1508 1506 1504 1502 1501 1499 1497 1495 1494 1493 1491 1489 1488 1486 1484 1482 1480 1479 1478 1475 1473
1524 1525 1527 1529 1530 1531 1532 1532 1533 1533 1533 1533 1533 1533 1532 1532 1532 1533 1533 1532 1532 1532 1532 1532 1531 1531 1531 1531 1530 1530 1530 1529 1529 1528 1527 1526 1525 1524 1523 1522 1521 1521 1520 1519 1518 1517 1517 1515 1513 1511 1510 1509 1507 1506 1505 1503 1502 1501 1499 1497 1495 1493 1492 1491 1489 1487 1485 1484 1482 1480 1479 1478 1477 1475
1522 1524 1525 1527 1528 1529 1530 1531 1531 1532 1532 1532 1531 1531 1531 1531 1530 1530 1530 1530 1530 1530 1530 1530 1530 1530 1530 1529 1529 1528 1528 1527 1526 1526 1525 1524 1523 1522 1521 1520 1520 1519 1518 1517 1516 1515 1514 1513 1511 1509 1508 1507 1506 1505 1503 1502 1501 1499 1498 1496 1494 1492 1490 1489 1488 1486 1485 1483 1481 1480 1479 1478 1476 1475
1521 1522 1524 1525 1526 1527 1528 1529 1530 1530 1530 1530 1530 1530 1530 1529 1529 1529 1529 1529 1529 1529 1528 1528 1528 1528 1528 1528 1528 1528 1527 1526 1525 1524 1523 1522 1521 1520 1519 1518 1518 1517 1515 1514 1513 1512 1511 1510 1509 1508 1506 1505 1504 1503 1502 1500 1499 1497 1496 1495 1493 1491 1489 1487 1485 1484 1483 1482 1481 1479 1478 1477 1475 1474
1519 1520 1521 1523 1524 1525 1526 1527 1528 1528 1528 1529 1529 1529 1529 1528 1528 1528 1528 1528 1528 1528 1527 1527 1527 1527 1527 1527 1526 1526 1525 1524 1523 1522 1521 1520 1519 1518 1517 1516 1515 1514 1513 1511 1510 1509 1508 1508 1507 1506 1505 1503 1502 1501 1499 1498 1497 1495 1494 1492 1491 1489 1487 1486 1484 1482 1481 1480 1479 1478 1477 1475 1474 1473
1518 1518 1519 1521 1522 1523 1524 1525 1525 1526 1526 1527 1527 1527 1527 1527 1526 1526 1526 1526 1526 1526 1525 1525 1525 1525 1525 1524 1524 1524 1523 1522 1521 1520 1519 1518 1517 1516 1515 1514 1513 1512 1510 1509 1508 1507 1506 1505 1504 1503 1502 1501 1500 1498 1497 1495 1494 1492 1491 1489 1488 1487 1486 1485 1483 1482 1480 1478 1477 1476 1475 1474 1473 1471